MIDAS 3 DEB, 196

Orbit data source: Space-Track

MIDAS 3 DEB, 196 is space debris in LEO originally from a launch on Wed, 12 Jul 1961 UTC launched from the Air Force Western Test Range (AFWTR). Debris objects in space refer to the collection of defunct objects orbiting the Earth. Examples of debris include non-operational satellites, rocket bodies, and fragments generated from explosions, collisions, or faulty payload assembly.

Loading next visibility...
Identifier
196, 1961-018D
Orbit
LEO
Country
Flag of USUS
Related business
Manufacturer
Unknown
Mission
Spacecraft
Bus & Motor
Unknown
Mass
~10 kg wet, ~10 kg dry
Launch date (UTC)
1961-07-12 (65 years ago)
Launch vehicle
Unknown
Launch site
Air Force Western Test Range (AFWTR)
Object type
Payload
Rocket body
Debris
Shape & HBR
PAN, 1.1 m
Radar Cross Section
Medium (>0.1 m² and <1 m²)

Expand to show TLE details & history
Last TLE update: 1 day ago

TLE from 1 day ago
0 MIDAS 3 DEB
1 00196U 61018D   26205.98655535  .00000025  00000-0  86233-2 0  9994
2 00196  91.1192 205.0308 0088510 275.1952  83.8824  8.89679298112016
Epoch: 2026-07-24T23:40Z
TLE epoch observation values (Epoch: 2026-07-24T23:40:38.382Z)
Latitude
0.00004°
Longitude
-92.83444°
Altitude
3,453.717 km
Speed
6.371 km/s
True Right ascension
13h 40m 07s
True Declination
0° 00' 00"
Sunlit
Object was in daylight at epoch
Visualization orbit readout
Latitude
Unknown
Longitude
Unknown
Altitude
Unknown
Speed
Unknown
Apparent Right ascension
Unknown
Apparent Declination
Unknown
Sunlit
N/A
Visualization observer readout
Local Sidereal Time
16:14:50
Azimuth
Unknown
Elevation
Unknown
Doppler factor
Unknown
Orbital elements
Apogee altitude
3,544.828 km
Perigee altitude
3,370.712 km
Semi-major axis
9,835.907 km
Eccentricity
0.00885
Inclination
91.1192°
RAAN
205.0308°
Arg. of periapsis
275.1952°
True anomaly
84.89201°
Mean anomaly
83.8824°
Eccentric anomaly
84.38709°
Mean motion
2.22496 °/min
Orbital period
161.8 mins
BSTAR
0.0086233
Loading maneuver chart data...
Computing Atmospheric mass density...
Loading historical data...
Loading historical data...
Loading historical data...
Loading historical data...
Loading historical data...
Loading historical data...
Loading historical data...
Other satellites on launch #18 in the year 1961 (1961-07-12 UTC)

Documentation

Showing up to 5 results
|